Milwaukee, WI

4:47 PM CST on November 15, 2019 (GMT -0600)
Gen Mitchell International

Weather History for KMKE - September, 2019

Change the Weather History Date:

Saturday, September 14, 2019

  Actual Average Record
Temperature  
Mean Temperature 66 °F 64 °F  
Max Temperature 77 °F 72 °F 98 °F (1939)
Min Temperature 55 °F 56 °F 38 °F (1923)
Degree Days  
Heating Degree Days 0 3  
Month to date heating degree days 8 29  
Since 1 July heating degree days 10 55  
Cooling Degree Days 1 2  
Month to date cooling degree days 50 48  
Year to date cooling degree days 656 613  
Growing Degree Days 16 (Base 50)    
Moisture  
Dew Point 56 °F    
Average Humidity 70    
Maximum Humidity 87    
Minimum Humidity 48    
Precipitation  
Precipitation 0.00 in 0.11 in 2.31 in (1914)
Month to date precipitation 5.05 1.46  
Year to date precipitation 33.46 25.64  
Snow  
Snow 0.00 in 0.00 in 0.00 in (2018)
Month to date snowfall 0.0 0.0  
Since 1 July snowfall 0.0 0.0  
Since 1 September snowfall 0.0 0.0  
Snow Depth 0.00 in    
Sea Level Pressure  
Sea Level Pressure 30.14 in    
Wind  
Wind Speed 7 mph ()    
Max Wind Speed 16 mph    
Max Gust Speed 24 mph    
Visibility 10.0 miles    
Events      
T = Trace of Precipitation, MM = Missing Value Source: Averaged Metar Reports

Daily Weather History Graph

Daily Weather History Graph

Search for Another Location

Airport or City:

Astronomy

Sep. 14, 2019 Rise Set
Actual Time 6:29 AM CDT 7:03 PM CDT
Civil Twilight 6:01 AM CDT 7:32 PM CDT
Nautical Twilight 5:27 AM CDT 8:05 PM CDT
Astronomical Twilight 4:52 AM CDT 8:40 PM CDT
Moon 7:44 PM CDT (9/14) 6:42 AM CDT (9/14)
Length of Visible Light 13h 30m
Length of Day
12h 33m
Full, 100% of the Moon is Illuminated
Sep 14
Full
Sep 21
Last Quarter
Sep 28
New
Oct 5
First Quarter
Oct 13
Full

Hourly Weather History & Observations

Time (CDT) Temp. Dew Point Humidity Pressure Visibility Wind Dir Wind Speed Gust Speed Precip Events Conditions
12:52 AM 62.1 °F 53.1 °F 72% 30.10 in 10.0 mi West 8.1 mph - N/A   Clear
1:52 AM 61.0 °F 53.1 °F 75% 30.10 in 10.0 mi WSW 6.9 mph - N/A   Clear
2:52 AM 60.1 °F 53.1 °F 78% 30.11 in 10.0 mi WSW 6.9 mph - N/A   Clear
3:52 AM 59.0 °F 53.1 °F 81% 30.13 in 10.0 mi West 6.9 mph - N/A   Clear
4:52 AM 57.9 °F 52.0 °F 81% 30.15 in 10.0 mi WSW 4.6 mph - N/A   Clear
5:52 AM 57.0 °F 52.0 °F 83% 30.17 in 10.0 mi WSW 4.6 mph - N/A   Clear
6:52 AM 55.9 °F 52.0 °F 87% 30.18 in 10.0 mi SW 4.6 mph - N/A   Clear
7:52 AM 59.0 °F 53.1 °F 81% 30.19 in 10.0 mi SW 6.9 mph - N/A   Clear
8:52 AM 62.1 °F 54.0 °F 75% 30.19 in 10.0 mi SW 6.9 mph - N/A   Partly Cloudy
9:52 AM 64.9 °F 53.1 °F 65% 30.19 in 10.0 mi West 5.8 mph - N/A   Partly Cloudy
10:52 AM 68.0 °F 54.0 °F 61% 30.20 in 10.0 mi SW 11.5 mph - N/A   Partly Cloudy
11:52 AM 70.0 °F 55.0 °F 59% 30.19 in 10.0 mi SW 10.4 mph - N/A   Partly Cloudy
12:52 PM 73.9 °F 54.0 °F 50% 30.17 in 10.0 mi West 9.2 mph - N/A   Scattered Clouds
1:52 PM 75.9 °F 55.0 °F 48% 30.16 in 10.0 mi SW 15.0 mph 24.2 mph N/A   Scattered Clouds
2:52 PM 75.9 °F 55.9 °F 50% 30.13 in 10.0 mi WSW 10.4 mph - N/A   Partly Cloudy
3:52 PM 77.0 °F 57.9 °F 52% 30.13 in 10.0 mi WSW 12.7 mph 19.6 mph N/A   Mostly Cloudy
4:52 PM 75.9 °F 60.1 °F 58% 30.11 in 10.0 mi SW 5.8 mph - N/A   Mostly Cloudy
5:52 PM 70.0 °F 60.1 °F 71% 30.10 in 10.0 mi ESE 6.9 mph - N/A   Mostly Cloudy
6:52 PM 69.1 °F 60.1 °F 73% 30.10 in 10.0 mi SSE 5.8 mph - N/A   Mostly Cloudy
7:52 PM 66.9 °F 59.0 °F 76% 30.09 in 10.0 mi SSE 5.8 mph - N/A   Mostly Cloudy
8:52 PM 66.9 °F 60.1 °F 79% 30.10 in 10.0 mi South 5.8 mph - N/A   Mostly Cloudy
10:52 PM 66.9 °F 60.1 °F 79% 30.09 in 10.0 mi South 4.6 mph - N/A   Scattered Clouds
11:52 PM 68.0 °F 60.1 °F 76% 30.09 in 10.0 mi SSW 5.8 mph - N/A   Mostly Cloudy